TimeEST,TemperatureF,Dew PointF,Humidity,Sea Level PressureIn,VisibilityMPH,Wind Direction,Wind SpeedMPH,Gust SpeedMPH,PrecipitationIn,Events,Conditions,WindDirDegrees,DateUTC
12:54 AM,25.0,12.0,58,30.14,10.0,SSE,10.4,-,N/A,,Clear,150,2013-02-18 05:54:00
1:54 AM,26.1,12.0,55,30.12,10.0,SE,11.5,18.4,N/A,,Partly Cloudy,140,2013-02-18 06:54:00
2:54 AM,26.1,12.0,55,30.09,10.0,SSE,15.0,-,N/A,,Scattered Clouds,150,2013-02-18 07:54:00
3:54 AM,27.0,12.0,53,30.06,10.0,SSE,15.0,28.8,N/A,,Clear,150,2013-02-18 08:54:00
4:54 AM,27.0,12.9,56,30.02,10.0,SE,16.1,-,N/A,,Clear,140,2013-02-18 09:54:00
5:54 AM,28.9,12.9,51,29.99,10.0,SSE,16.1,25.3,N/A,,Clear,150,2013-02-18 10:54:00
6:54 AM,28.9,14.0,54,29.95,10.0,SSE,15.0,23.0,N/A,,Clear,160,2013-02-18 11:54:00
7:54 AM,28.9,15.1,56,29.94,10.0,SSE,17.3,-,N/A,,Clear,160,2013-02-18 12:54:00
8:54 AM,30.9,18.0,59,29.91,10.0,South,17.3,24.2,N/A,,Clear,170,2013-02-18 13:54:00
9:54 AM,35.1,21.0,57,29.88,10.0,South,15.0,23.0,N/A,,Clear,170,2013-02-18 14:54:00
10:54 AM,41.0,26.1,55,29.85,10.0,South,18.4,26.5,N/A,,Clear,190,2013-02-18 15:54:00
11:54 AM,45.0,28.9,53,29.83,10.0,South,17.3,26.5,N/A,,Clear,180,2013-02-18 16:54:00
12:54 PM,48.9,32.0,52,29.81,10.0,South,18.4,24.2,N/A,,Clear,180,2013-02-18 17:54:00
1:54 PM,50.0,34.0,54,29.76,10.0,South,17.3,-,N/A,,Clear,190,2013-02-18 18:54:00
2:54 PM,52.0,37.0,57,29.74,10.0,South,19.6,27.6,N/A,,Mostly Cloudy,190,2013-02-18 19:54:00
3:50 PM,50.0,37.4,62,29.69,10.0,South,12.7,-,N/A,,Overcast,190,2013-02-18 20:50:00
3:54 PM,50.0,37.9,63,29.71,10.0,South,13.8,-,N/A,,Overcast,180,2013-02-18 20:54:00
4:54 PM,50.0,39.9,68,29.69,10.0,South,15.0,24.2,0.00,,Overcast,190,2013-02-18 21:54:00
5:54 PM,48.0,43.0,83,29.67,5.0,South,15.0,23.0,0.03,Rain,Rain,180,2013-02-18 22:54:00
6:54 PM,48.0,42.1,80,29.65,10.0,South,19.6,28.8,0.02,Rain,Light Rain,190,2013-02-18 23:54:00
7:54 PM,48.0,39.0,71,29.62,10.0,South,24.2,29.9,0.00,,Overcast,190,2013-02-19 00:54:00
8:54 PM,46.9,37.9,71,29.59,10.0,South,21.9,36.8,0.01,Rain,Light Rain,190,2013-02-19 01:54:00
9:54 PM,45.0,39.9,82,29.55,10.0,South,26.5,35.7,0.03,Rain,Light Rain,180,2013-02-19 02:54:00
10:54 PM,45.0,41.0,86,29.50,10.0,South,25.3,34.5,0.02,Rain,Light Rain,180,2013-02-19 03:54:00
11:54 PM,45.0,41.0,86,29.47,8.0,South,25.3,35.7,0.03,Rain,Rain,190,2013-02-19 04:54:00